Volver al catálogo

YAOGAN 29 DEB

ActivoMilitarSSO
NORAD 42673·DEBRIS·🇨🇳 China

Lanzado Nov 26, 2015 desde Taiyuan Satellite Launch Center

Loading…

Próximos Pases (próximas 24 horas)

TLE

ActualizadoSource: Space-Track

Época: Sep 14, 2026, 21:49 UTC

1 42673U 15069F   26257.90970777  .00000843  00000-0  90223-4 0  9996
2 42673  97.8691 293.5103 0004700  79.2182 280.9565 14.91333098585359

Sigue YAOGAN 29 DEB en tiempo real con AllMySat

Download on the App Store